RH
87 92 85 75 72 64 59 56 55 52 54 55 60 58 58 59 59 60 56 59 63 67 69 68 64 58 58 60 63 65 66 66 65
78 82 73 72 62 57 52 49 48 45 49 51 53 56 56 59 62 64 68 74 72 71 72 75 70 65 64 65 67 66 66 66 64
49 56 61 62 62 57 48 45 43 40 43 42 42 50 53 54 58 62 69 78 83 79 71 71 70 69 70 69 68 68 67 65 61
30 33 36 43 51 50 46 43 42 35 36 34 35 38 46 50 46 53 60 61 70 66 65 62 65 69 69 67 68 66 62 57 52
25 24 23 21 21 26 29 36 41 41 34 31 30 29 32 39 43 42 46 51 59 72 79 84 84 76 71 68 65 59 48 47 47
25 22 20 18 17 17 17 21 34 41 44 33 32 30 29 32 37 35 34 37 44 46 48 48 49 49 52 49 46 47 46 42 37
24 21 17 15 15 16 21 23 27 43 48 41 32 30 30 29 33 31 33 37 46 43 38 46 41 43 42 39 39 39 35 31 31
22 20 15 14 15 17 25 30 36 44 49 43 37 33 31 33 33 32 33 37 44 45 47 42 49 38 37 33 32 35 33 32 32
21 20 20 17 16 19 22 32 32 37 33 27 30 30 29 37 36 30 31 36 49 40 46 43 43 39 37 33 30 30 30 34 36
20 21 22 24 24 24 28 27 30 31 31 30 29 29 32 36 37 30 31 30 30 33 37 56 51 47 44 43 41 36 35 35 35
21 24 25 27 31 33 33 38 37 33 33 31 32 30 32 33 36 31 33 32 30 30 32 40 62 59 48 45 50 47 42 39 35
20 23 28 29 28 32 34 33 32 32 33 28 31 33 32 32 32 33 32 32 33 32 30 34 50 63 55 44 50 52 47 43 39
21 22 25 29 30 33 35 29 33 33 30 26 27 31 33 32 30 33 32 32 31 31 30 31 39 51 58 48 47 53 51 47 45
27 25 24 26 30 36 34 35 30 31 32 30 28 29 30 32 32 34 32 34 32 31 30 31 34 41 47 54 50 49 50 48 44
30 31 29 29 30 34 35 33 34 37 36 34 29 30 30 29 34 34 36 35 34 35 33 32 32 34 42 44 46 50 52 48 45
37 36 35 34 34 35 35 36 34 38 38 37 36 33 32 30 31 33 35 35 36 36 36 35 34 34 35 40 43 59 55 54 51
46 43 42 40 38 38 39 41 42 42 41 40 38 36 30 28 30 30 30 31 34 35 35 37 36 34 35 37 43 48 60 56 53
52 49 47 46 44 43 43 43 44 44 43 43 44 42 39 34 31 31 30 30 32 32 33 35 36 35 34 37 41 47 49 52 54
57 56 54 52 50 48 47 47 48 47 46 45 44 43 43 43 38 34 33 33 33 33 32 33 34 36 34 37 39 44 55 53 51
59 59 60 59 57 55 53 52 50 51 51 50 48 47 45 44 44 42 37 36 34 34 31 31 27 31 33 35 39 40 49 59 56